sat.trackr.live / text

‹ back to catalog

STARLINK-2266

NORAD 47997 · 2021-024W

PAYLOAD ACTIVE UNKNOWN

§ Identity

Operator
Country
US
Launch date
2021-03-24
Launch site
AFETR
Launch vehicle
Mass (kg)
RCS (m²)

Purposes: comms

External: N2YO · Heavens-Above · Gunter

§ Orbital elements

Epoch: 2026-09-20T02:21:41.815296Z

Period
94.01 min
Inclination
53.1572°
Eccentricity
0.0001204
Mean motion
15.31732569 rev/d
Perigee alt
469.8 km
Apogee alt
471.5 km
Semi-major
6,848.8 km
B*
2.8992e-4
RAAN
122.0254°
Arg perigee
92.7712°
Mean anomaly
267.3427°
Rev number
30,477

§ Raw data

STARLINK-22661 47997U 21024W   26263.09840064  .00008651  00000+0  28992-3 0  99972 47997  53.1572 122.0254 0001204  92.7712 267.3427 15.31732569304776

JSON: /api/v1/satellites/47997 · /tle

For live sub-satellite position, see the globe view (requires WebGL).

§ Visibility from observer

Set your observer location to see the next 7 days of passes ≥ 10°. The values pass through the URL so the page stays shareable.

No JS? Fill the form by hand. The geolocation button needs JavaScript.